Location: Carbonear
(47.7333°N, 53.2500°W)
Time: 09:49:50
(UTC+00:00)

KAITUO 1B - Visible Passes

Search period start: 27 November 2022 00:00
Search period end: 07 December 2022 00:00
Orbit: 466 x 485 km, 97.4° (Epoch: 26 November)

Date Brightness Start Highest point End Pass type
(mag) Time Alt. Az. Time Alt. Az. Time Alt. Az.
27 Nov ? 10:17:13 10° NNE 10:20:43 68° ESE 10:24:13 10° S visible
27 Nov ? 20:55:01 10° SE 20:58:21 42° ENE 21:01:40 10° N visible
27 Nov ? 22:29:50 10° SW 22:31:49 14° W 22:33:49 10° WNW visible
28 Nov ? 09:50:22 10° NNE 09:53:32 31° E 09:56:41 10° SSE visible
28 Nov ? 20:28:40 10° ESE 20:31:23 21° ENE 20:34:05 10° NNE visible
28 Nov ? 22:01:26 10° SSW 22:04:30 28° W 22:07:35 10° NW visible
29 Nov ? 09:24:01 10° NE 09:26:13 16° E 09:28:25 10° SE visible
29 Nov ? 21:33:48 10° S 21:37:16 62° WSW 21:40:45 10° NNW visible
30 Nov ? 21:06:41 10° SSE 21:10:07 58° ENE 21:13:34 10° N visible
30 Nov ? 22:42:58 10° WSW 22:43:44 11° W 22:44:31 10° WNW visible
01 Dec ? 10:01:59 10° NNE 10:05:21 43° E 10:08:44 10° S visible
01 Dec ? 20:40:01 10° SE 20:43:02 28° ENE 20:46:05 10° N visible
01 Dec ? 22:13:35 10° SW 22:16:19 21° W 22:19:04 10° NW visible
02 Dec ? 09:35:17 10° NE 09:38:02 21° E 09:40:46 10° SE visible
02 Dec ? 20:14:01 10° E 20:16:04 15° ENE 20:18:05 10° NNE visible
02 Dec ? 21:45:37 10° S 21:48:58 44° W 21:52:21 10° NNW visible
03 Dec ? 09:09:54 10° ENE 09:10:34 10° E 09:11:15 10° E visible
03 Dec ? 21:18:14 10° SSE 21:21:43 82° ENE 21:25:14 10° N visible
04 Dec ? 10:13:28 10° NNE 10:16:59 60° E 10:20:28 10° S visible
04 Dec ? 20:51:19 10° SE 20:54:33 37° ENE 20:57:48 10° N visible
04 Dec ? 22:25:44 10° SW 22:27:58 16° W 22:30:12 10° NW visible
05 Dec ? 09:46:32 10° NE 09:49:38 28° E 09:52:43 10° SSE visible
05 Dec ? 20:24:55 10° ESE 20:27:27 19° ENE 20:30:00 10° NNE visible
05 Dec ? 21:57:21 10° SSW 22:00:31 32° W 22:03:42 10° NNW visible
06 Dec ? 09:20:12 10° ENE 09:22:09 14° E 09:24:07 10° SE visible
06 Dec ? 21:29:40 10° S 21:33:09 71° WSW 21:36:40 10° NNW visible
